Location: Pettit
(39.0209°N, 79.7181°W)
Time: 05:37:58
(UTC+00:00)

ISS - Pass Details

Date: 21 April 2026
Orbit: 414 x 424 km, 51.6° (Epoch: 15 May)

Event Time Altitude Azimuth Distance (km) Brightness Sun altitude
Exits shadow 08:54:26 61° 268° (W) 477 -3.8 -18.3°
Maximum altitude 08:54:52 72° 322° (NW) 442 -3.8 -18.3°
Drops below altitude 10° 08:58:14 10° 48° (NE) 1,502 0.3 -17.7°
Sets 09:00:21 0° 51° (NE) 2,372 1.8 -17.4°
